Orbital Elements at Epoch 2459000.5 (2020-May-31.0) TDB
Reference: JPL 23 (heliocentric ecliptic J2000)
Element | Value | Uncertainty (1-sigma) | Units |
e | .5884421987687327 | 9.8428e-08 | |
a | 1.915225410412981 | 1.5174e-08 | au |
q | .7882259587718178 | 1.8786e-07 | au |
i | 7.558654503987381 | 3.4016e-05 | deg |
node | 196.2014756588743 | 6.011e-05 | deg |
peri | 80.75839645730704 | 6.5927e-05 | deg |
M | 280.286373287759 | 3.0063e-05 | deg |
tp | 2459214.867200997348 (2020-Dec-31.36720100) | 8.3229e-05 | TDB |
period | 968.1179434681823 2.65 | 1.1505e-05 3.15e-08 | d yr |
n | .3718555186678364 | 4.4192e-09 | deg/d |
Q | 3.042224862054144 | 2.4103e-08 | au |
|
| | Orbit Determination Parameters
Additional Information
|